Time,TemperatureF,DewpointF,PressureIn,WindDirection,WindDirectionDegrees,WindSpeedMPH,WindSpeedGustMPH,Humidity,HourlyPrecipIn,Conditions,Clouds,dailyrainin,SolarRadiationWatts/m^2,SoftwareType,DateUTC
2013-06-15 00:02:00,67.8,54.8,30.00,NNW,338,2.0,0.0,63,0.00,CLR,,0.00,0.0,WeatherDisplay:10.37,2013-06-14 22:02:00,
2013-06-15 00:07:00,67.5,54.4,30.00,NNW,338,2.3,2.3,63,0.00,CLR,,0.00,0.0,WeatherDisplay:10.37,2013-06-14 22:07:00,
2013-06-15 00:12:00,67.3,54.3,30.00,WNW,292,2.3,2.3,63,0.00,CLR,,0.00,0.0,WeatherDisplay:10.37,2013-06-14 22:12:00,
2013-06-15 00:17:00,67.1,54.5,30.00,NNW,338,3.5,3.5,64,0.00,CLR,,0.00,0.0,WeatherDisplay:10.37,2013-06-14 22:17:00,
2013-06-15 00:23:00,66.9,54.8,30.00,NNW,338,2.4,2.4,65,0.00,CLR,,0.00,0.0,WeatherDisplay:10.37,2013-06-14 22:23:00,
2013-06-15 00:28:00,66.7,54.6,30.00,NNW,338,3.8,3.8,65,0.00,CLR,,0.00,0.0,WeatherDisplay:10.37,2013-06-14 22:28:00,
2013-06-15 00:33:00,66.6,54.8,30.03,NNW,338,2.3,2.3,66,0.00,CLR,,0.00,0.0,WeatherDisplay:10.37,2013-06-14 22:33:00,
2013-06-15 00:38:00,66.4,54.7,30.03,North,0,2.3,2.3,66,0.00,CLR,,0.00,0.0,WeatherDisplay:10.37,2013-06-14 22:38:00,
2013-06-15 00:43:00,66.4,54.7,30.03,North,0,3.5,3.5,66,0.00,CLR,,0.00,0.0,WeatherDisplay:10.37,2013-06-14 22:43:00,
2013-06-15 00:48:00,66.2,54.5,30.00,NW,315,1.2,1.2,66,0.00,CLR,,0.00,0.0,WeatherDisplay:10.37,2013-06-14 22:48:00,
2013-06-15 00:54:00,66.0,54.7,30.00,North,0,0.0,0.0,67,0.00,CLR,,0.00,0.0,WeatherDisplay:10.37,2013-06-14 22:54:00,
2013-06-15 00:59:00,65.8,54.6,30.00,NNE,22,0.0,0.0,67,0.00,CLR,,0.00,0.0,WeatherDisplay:10.37,2013-06-14 22:59:00,
2013-06-15 01:04:00,65.7,54.0,29.97,NNE,22,0.0,0.0,66,0.00,CLR,,0.00,0.0,WeatherDisplay:10.37,2013-06-14 23:04:00,
2013-06-15 01:09:00,65.5,53.8,29.97,NNE,22,0.0,0.0,66,0.00,CLR,,0.00,0.0,WeatherDisplay:10.37,2013-06-14 23:09:00,
2013-06-15 01:14:00,65.3,53.6,29.97,NNE,22,0.0,0.0,66,0.00,CLR,,0.00,0.0,WeatherDisplay:10.37,2013-06-14 23:14:00,
2013-06-15 01:19:00,65.1,53.9,30.00,WNW,292,0.0,0.0,67,0.00,CLR,,0.00,0.0,WeatherDisplay:10.37,2013-06-14 23:19:00,
2013-06-15 01:25:00,64.9,54.1,30.00,WNW,292,0.0,0.0,68,0.00,CLR,,0.00,0.0,WeatherDisplay:10.37,2013-06-14 23:25:00,
2013-06-15 01:30:00,64.8,53.9,30.00,WNW,292,0.0,0.0,68,0.00,CLR,,0.00,0.0,WeatherDisplay:10.37,2013-06-14 23:30:00,
2013-06-15 01:35:00,64.8,53.9,30.00,WNW,292,0.0,0.0,68,0.00,CLR,,0.00,0.0,WeatherDisplay:10.37,2013-06-14 23:35:00,
2013-06-15 01:40:00,64.4,53.6,30.00,WNW,292,0.0,0.0,68,0.00,CLR,,0.00,0.0,WeatherDisplay:10.37,2013-06-14 23:40:00,
2013-06-15 01:45:00,64.2,53.8,30.00,West,270,0.0,0.0,69,0.00,CLR,,0.00,0.0,WeatherDisplay:10.37,2013-06-14 23:45:00,
2013-06-15 01:51:00,64.0,54.1,30.00,NE,45,0.0,0.0,70,0.00,CLR,,0.00,0.0,WeatherDisplay:10.37,2013-06-14 23:51:00,
2013-06-15 01:56:00,63.9,53.9,30.00,NE,45,0.0,0.0,70,0.00,CLR,,0.00,0.0,WeatherDisplay:10.37,2013-06-14 23:56:00,
2013-06-15 02:01:00,63.9,53.9,30.00,WNW,292,0.0,0.0,70,0.00,CLR,,0.00,0.0,WeatherDisplay:10.37,2013-06-15 00:01:00,
2013-06-15 02:06:00,63.7,53.7,30.00,WNW,292,0.0,0.0,70,0.00,CLR,,0.00,0.0,WeatherDisplay:10.37,2013-06-15 00:06:00,
2013-06-15 02:12:00,63.5,53.5,30.00,WNW,292,0.0,0.0,70,0.00,CLR,,0.00,0.0,WeatherDisplay:10.37,2013-06-15 00:12:00,
2013-06-15 02:17:00,63.3,53.8,30.00,WNW,292,0.0,0.0,71,0.00,CLR,,0.00,0.0,WeatherDisplay:10.37,2013-06-15 00:17:00,
2013-06-15 02:22:00,63.1,53.6,30.00,WNW,292,0.0,0.0,71,0.00,CLR,,0.00,0.0,WeatherDisplay:10.37,2013-06-15 00:22:00,
2013-06-15 02:28:00,63.0,53.8,30.00,WNW,292,0.0,0.0,72,0.00,CLR,,0.00,0.0,WeatherDisplay:10.37,2013-06-15 00:28:00,
2013-06-15 02:33:00,62.8,53.6,29.97,WNW,292,0.0,0.0,72,0.00,CLR,,0.00,0.0,WeatherDisplay:10.37,2013-06-15 00:33:00,
2013-06-15 02:38:00,62.6,53.4,29.97,WNW,292,0.0,0.0,72,0.00,CLR,,0.00,0.0,WeatherDisplay:10.37,2013-06-15 00:38:00,
2013-06-15 02:43:00,62.4,53.3,29.97,WNW,292,0.0,0.0,72,0.00,CLR,,0.00,0.0,WeatherDisplay:10.37,2013-06-15 00:43:00,
2013-06-15 02:48:00,62.4,53.3,30.00,WNW,292,0.0,0.0,72,0.00,CLR,,0.00,0.0,WeatherDisplay:10.37,2013-06-15 00:48:00,
2013-06-15 02:53:00,62.2,53.1,30.00,WNW,292,0.0,0.0,72,0.00,CLR,,0.00,0.0,WeatherDisplay:10.37,2013-06-15 00:53:00,
2013-06-15 02:59:00,62.1,52.9,30.00,WNW,292,0.0,0.0,72,0.00,CLR,,0.00,0.0,WeatherDisplay:10.37,2013-06-15 00:59:00,
2013-06-15 03:04:00,62.1,53.3,29.97,WNW,292,0.0,0.0,73,0.00,CLR,,0.00,0.0,WeatherDisplay:10.37,2013-06-15 01:04:00,
2013-06-15 03:09:00,62.1,53.3,29.97,WSW,248,0.0,0.0,73,0.00,CLR,,0.00,0.0,WeatherDisplay:10.37,2013-06-15 01:09:00,
2013-06-15 03:14:00,61.9,53.1,29.97,WSW,248,0.0,0.0,73,0.00,CLR,,0.00,0.0,WeatherDisplay:10.37,2013-06-15 01:14:00,
2013-06-15 03:19:00,61.7,53.0,30.00,West,270,0.0,0.0,73,0.00,CLR,,0.00,0.0,WeatherDisplay:10.37,2013-06-15 01:19:00,
2013-06-15 03:25:00,61.7,53.3,30.00,WNW,292,2.4,2.4,74,0.00,CLR,,0.00,0.0,WeatherDisplay:10.37,2013-06-15 01:25:00,
2013-06-15 03:30:00,61.5,53.5,30.00,WNW,292,1.2,0.0,75,0.00,CLR,,0.00,0.0,WeatherDisplay:10.37,2013-06-15 01:30:00,
2013-06-15 03:35:00,61.3,53.3,30.00,WNW,292,2.3,2.3,75,0.00,CLR,,0.00,0.0,WeatherDisplay:10.37,2013-06-15 01:35:00,
2013-06-15 03:40:00,61.3,53.7,30.00,WNW,292,0.0,0.0,76,0.00,CLR,,0.00,0.0,WeatherDisplay:10.37,2013-06-15 01:40:00,
2013-06-15 03:45:00,61.3,53.7,30.00,WNW,292,0.0,0.0,76,0.00,CLR,,0.00,0.0,WeatherDisplay:10.37,2013-06-15 01:45:00,
2013-06-15 03:50:00,61.3,53.3,30.00,WNW,292,0.0,0.0,75,0.00,CLR,,0.00,0.0,WeatherDisplay:10.37,2013-06-15 01:50:00,
2013-06-15 03:56:00,61.2,53.5,30.00,NW,315,0.0,0.0,76,0.00,CLR,,0.00,0.0,WeatherDisplay:10.37,2013-06-15 01:56:00,
2013-06-15 04:01:00,61.0,53.7,30.00,NE,45,0.0,0.0,77,0.00,CLR,,0.00,0.0,WeatherDisplay:10.37,2013-06-15 02:01:00,
2013-06-15 04:06:00,61.0,53.7,30.00,ENE,68,2.3,2.3,77,0.00,CLR,,0.00,0.0,WeatherDisplay:10.37,2013-06-15 02:06:00,
2013-06-15 04:11:00,61.0,53.7,30.00,East,90,2.3,2.3,77,0.00,CLR,,0.00,0.0,WeatherDisplay:10.37,2013-06-15 02:11:00,
2013-06-15 04:16:00,61.0,54.1,30.00,ESE,112,2.4,2.4,78,0.00,OVC,,0.00,0.0,WeatherDisplay:10.37,2013-06-15 02:16:00,
2013-06-15 04:21:00,61.0,54.1,30.00,ESE,112,0.0,0.0,78,0.00,OVC,,0.00,0.0,WeatherDisplay:10.37,2013-06-15 02:21:00,
2013-06-15 04:27:00,61.0,53.7,30.00,ESE,112,0.0,0.0,77,0.00,OVC,,0.00,0.0,WeatherDisplay:10.37,2013-06-15 02:27:00,
2013-06-15 04:32:00,60.8,53.9,30.00,ESE,112,0.0,0.0,78,0.00,OVC,,0.00,0.0,WeatherDisplay:10.37,2013-06-15 02:32:00,
2013-06-15 04:37:00,60.8,53.9,30.00,ESE,112,0.0,0.0,78,0.00,OVC,,0.00,0.0,WeatherDisplay:10.37,2013-06-15 02:37:00,
2013-06-15 04:42:00,60.8,53.9,30.00,ESE,112,0.0,0.0,78,0.00,OVC,,0.00,0.0,WeatherDisplay:10.37,2013-06-15 02:42:00,
2013-06-15 04:47:00,60.8,53.5,29.97,WNW,292,1.2,1.2,77,0.00,OVC,,0.00,0.0,WeatherDisplay:10.37,2013-06-15 02:47:00,
2013-06-15 04:52:00,60.6,53.4,29.97,West,270,0.0,0.0,77,0.00,OVC,,0.00,0.0,WeatherDisplay:10.37,2013-06-15 02:52:00,
2013-06-15 04:58:00,60.6,53.7,29.97,WNW,292,0.0,0.0,78,0.00,OVC,,0.00,0.0,WeatherDisplay:10.37,2013-06-15 02:58:00,
2013-06-15 05:03:00,60.6,54.1,30.00,WNW,292,0.0,0.0,79,0.00,CLR,,0.00,6.4,WeatherDisplay:10.37,2013-06-15 03:03:00,
2013-06-15 05:08:00,60.6,54.1,30.00,WNW,292,0.0,0.0,79,0.00,BKN,,0.00,8.0,WeatherDisplay:10.37,2013-06-15 03:08:00,
2013-06-15 05:13:00,60.6,54.1,30.00,WNW,292,0.0,0.0,79,0.00,OVC,,0.00,10.7,WeatherDisplay:10.37,2013-06-15 03:13:00,
2013-06-15 05:18:00,60.6,54.1,30.00,WNW,292,0.0,0.0,79,0.00,BKN,,0.00,17.1,WeatherDisplay:10.37,2013-06-15 03:18:00,
2013-06-15 05:24:00,60.6,54.1,30.00,WNW,292,0.0,0.0,79,0.00,SCT,,0.00,33.7,WeatherDisplay:10.37,2013-06-15 03:24:00,
2013-06-15 05:29:00,60.6,54.1,30.00,WNW,292,0.0,0.0,79,0.00,SCT,,0.00,43.3,WeatherDisplay:10.37,2013-06-15 03:29:00,
2013-06-15 05:34:00,60.8,54.6,30.00,WNW,292,2.0,0.0,80,0.00,SCT,,0.00,49.7,WeatherDisplay:10.37,2013-06-15 03:34:00,
2013-06-15 05:39:00,61.0,54.8,30.00,WNW,292,3.5,3.5,80,0.00,SCT,,0.00,61.5,WeatherDisplay:10.37,2013-06-15 03:39:00,
2013-06-15 05:45:00,61.3,55.5,30.00,NW,315,3.5,3.5,81,0.00,SCT,,0.00,67.9,WeatherDisplay:10.37,2013-06-15 03:45:00,
2013-06-15 05:50:00,61.7,55.8,30.03,WNW,292,2.4,2.4,81,0.00,SCT,,0.00,79.7,WeatherDisplay:10.37,2013-06-15 03:50:00,
2013-06-15 05:55:00,62.2,56.3,30.03,NW,315,2.3,2.3,81,0.00,SCT,,0.00,88.8,WeatherDisplay:10.37,2013-06-15 03:55:00,
2013-06-15 06:00:00,62.6,56.7,30.03,NW,315,2.3,2.3,81,0.00,SCT,,0.00,99.5,WeatherDisplay:10.37,2013-06-15 04:00:00,
2013-06-15 06:01:00,62.6,56.7,30.03,NW,315,2.3,2.3,81,0.00,SCT,,0.00,101.6,WeatherDisplay:10.37,2013-06-15 04:01:00,
2013-06-15 06:03:00,63.0,57.0,30.00,NW,315,0.0,0.0,81,0.00,SCT,,0.00,105.9,WeatherDisplay:10.37,2013-06-15 04:03:00,
2013-06-15 06:08:00,63.5,57.6,30.00,WNW,292,2.3,2.3,81,0.00,SCT,,0.00,121.4,WeatherDisplay:10.37,2013-06-15 04:08:00,
2013-06-15 06:13:00,63.9,57.6,30.00,NW,315,2.3,2.3,80,0.00,SCT,,0.00,133.2,WeatherDisplay:10.37,2013-06-15 04:13:00,
2013-06-15 06:19:00,64.4,58.1,30.00,NW,315,2.3,2.3,80,0.00,SCT,,0.00,148.7,WeatherDisplay:10.37,2013-06-15 04:19:00,
2013-06-15 06:24:00,64.9,58.6,30.00,WNW,292,2.3,2.3,80,0.00,SCT,,0.00,159.4,WeatherDisplay:10.37,2013-06-15 04:24:00,
2013-06-15 06:29:00,65.3,58.6,30.00,WNW,292,2.6,0.0,79,0.00,SCT,,0.00,171.1,WeatherDisplay:10.37,2013-06-15 04:29:00,
2013-06-15 06:34:00,65.8,59.1,30.00,NW,315,2.0,0.0,79,0.00,SCT,,0.00,182.9,WeatherDisplay:10.37,2013-06-15 04:34:00,
2013-06-15 06:39:00,66.2,59.1,30.00,West,270,1.2,1.4,78,0.00,SCT,,0.00,192.0,WeatherDisplay:10.37,2013-06-15 04:39:00,
2013-06-15 06:44:00,66.7,59.7,30.00,WSW,248,0.0,0.0,78,0.00,SCT,,0.00,204.8,WeatherDisplay:10.37,2013-06-15 04:44:00,
2013-06-15 06:50:00,67.1,59.6,30.00,SE,135,0.0,0.0,77,0.00,SCT,,0.00,219.3,WeatherDisplay:10.37,2013-06-15 04:50:00,
2013-06-15 06:55:00,67.6,59.8,30.00,SE,135,0.0,0.0,76,0.00,SCT,,0.00,231.0,WeatherDisplay:10.37,2013-06-15 04:55:00,
2013-06-15 07:00:00,67.8,60.0,30.00,South,180,2.3,2.3,76,0.00,SCT,,0.00,241.7,WeatherDisplay:10.37,2013-06-15 05:00:00,
2013-06-15 07:05:00,68.4,60.1,30.00,SE,135,2.3,2.3,75,0.00,SCT,,0.00,254.6,WeatherDisplay:10.37,2013-06-15 05:05:00,
2013-06-15 07:10:00,68.7,60.1,30.00,SE,135,2.3,2.3,74,0.00,SCT,,0.00,263.6,WeatherDisplay:10.37,2013-06-15 05:10:00,
2013-06-15 07:15:00,69.4,60.4,30.00,SE,135,3.5,3.5,73,0.00,SCT,,0.00,274.3,WeatherDisplay:10.37,2013-06-15 05:15:00,
2013-06-15 07:21:00,69.8,60.4,30.00,ENE,68,3.5,3.5,72,0.00,SCT,,0.00,286.1,WeatherDisplay:10.37,2013-06-15 05:21:00,
2013-06-15 07:26:00,70.2,60.3,30.00,East,90,3.5,3.5,71,0.00,SCT,,0.00,298.9,WeatherDisplay:10.37,2013-06-15 05:26:00,
2013-06-15 07:31:00,70.7,60.4,30.00,ENE,68,5.8,5.8,70,0.00,SCT,,0.00,309.6,WeatherDisplay:10.37,2013-06-15 05:31:00,
2013-06-15 07:36:00,70.7,60.0,30.00,East,90,6.9,6.9,69,0.00,SCT,,0.00,318.7,WeatherDisplay:10.37,2013-06-15 05:36:00,
2013-06-15 07:41:00,71.1,60.4,30.00,NNE,22,3.5,3.5,69,0.00,SCT,,0.00,328.9,WeatherDisplay:10.37,2013-06-15 05:41:00,
2013-06-15 07:46:00,71.4,60.3,30.00,ENE,68,4.6,4.6,68,0.00,SCT,,0.00,340.7,WeatherDisplay:10.37,2013-06-15 05:46:00,
2013-06-15 07:51:00,71.6,60.5,30.00,ESE,112,5.6,5.6,68,0.00,SCT,,0.00,351.4,WeatherDisplay:10.37,2013-06-15 05:51:00,
2013-06-15 07:57:00,71.8,60.6,30.00,SSE,158,4.6,4.6,68,0.00,SCT,,0.00,364.2,WeatherDisplay:10.37,2013-06-15 05:57:00,
2013-06-15 08:02:00,72.0,60.8,30.00,East,90,6.9,6.9,68,0.00,SCT,,0.00,374.9,WeatherDisplay:10.37,2013-06-15 06:02:00,
2013-06-15 08:07:00,72.0,60.4,30.00,ESE,112,5.8,5.8,67,0.00,SCT,,0.00,387.7,WeatherDisplay:10.37,2013-06-15 06:07:00,
2013-06-15 08:12:00,72.1,60.6,30.00,NNE,22,5.8,5.8,67,0.00,SCT,,0.00,399.5,WeatherDisplay:10.37,2013-06-15 06:12:00,
2013-06-15 08:17:00,72.3,60.7,30.00,ESE,112,5.8,5.8,67,0.00,SCT,,0.00,407.5,WeatherDisplay:10.37,2013-06-15 06:17:00,
2013-06-15 08:23:00,72.7,60.7,30.00,ESE,112,5.8,5.8,66,0.00,SCT,,0.00,416.6,WeatherDisplay:10.37,2013-06-15 06:23:00,
2013-06-15 08:28:00,73.0,61.0,30.00,ENE,68,4.6,4.6,66,0.00,SCT,,0.00,424.1,WeatherDisplay:10.37,2013-06-15 06:28:00,
2013-06-15 08:33:00,73.2,61.2,30.00,ESE,112,3.5,3.5,66,0.00,SCT,,0.00,437.5,WeatherDisplay:10.37,2013-06-15 06:33:00,
2013-06-15 08:38:00,73.4,60.9,30.00,South,180,4.6,4.6,65,0.00,SCT,,0.00,443.9,WeatherDisplay:10.37,2013-06-15 06:38:00,
2013-06-15 08:44:00,73.8,61.3,30.00,SSE,158,4.6,4.6,65,0.00,SCT,,0.00,454.0,WeatherDisplay:10.37,2013-06-15 06:44:00,
2013-06-15 08:48:00,73.9,61.4,29.97,South,180,5.8,5.8,65,0.00,SCT,,0.00,461.0,WeatherDisplay:10.37,2013-06-15 06:48:00,
2013-06-15 08:54:00,74.1,61.2,29.97,ENE,68,2.3,2.3,64,0.00,SCT,,0.00,473.8,WeatherDisplay:10.37,2013-06-15 06:54:00,
2013-06-15 08:59:00,74.7,61.2,29.97,ESE,112,3.5,3.5,63,0.00,SCT,,0.00,481.8,WeatherDisplay:10.37,2013-06-15 06:59:00,
2013-06-15 09:04:00,75.0,62.0,30.00,ENE,68,3.5,3.5,64,0.00,SCT,,0.00,492.0,WeatherDisplay:10.37,2013-06-15 07:04:00,
2013-06-15 09:09:00,75.2,61.7,30.00,ENE,68,6.9,6.9,63,0.00,SCT,,0.00,500.0,WeatherDisplay:10.37,2013-06-15 07:09:00,
2013-06-15 09:14:00,75.4,61.9,30.00,NE,45,5.4,5.4,63,0.00,SCT,,0.00,509.1,WeatherDisplay:10.37,2013-06-15 07:14:00,
2013-06-15 09:20:00,75.7,61.8,30.00,South,180,2.6,2.6,62,0.00,SCT,,0.00,515.5,WeatherDisplay:10.37,2013-06-15 07:20:00,
2013-06-15 09:25:00,75.7,61.8,30.00,SSE,158,2.3,2.3,62,0.00,SCT,,0.00,526.2,WeatherDisplay:10.37,2013-06-15 07:25:00,
2013-06-15 09:30:00,75.9,62.0,30.00,SSE,158,2.3,2.3,62,0.00,SCT,,0.00,531.0,WeatherDisplay:10.37,2013-06-15 07:30:00,
2013-06-15 09:35:00,76.5,62.0,29.97,East,90,3.8,3.8,61,0.00,SCT,,0.00,539.1,WeatherDisplay:10.37,2013-06-15 07:35:00,
2013-06-15 09:41:00,76.5,61.5,29.97,SSE,158,2.3,2.3,60,0.00,SCT,,0.00,484.5,WeatherDisplay:10.37,2013-06-15 07:41:00,
2013-06-15 09:46:00,76.6,61.7,29.97,SSW,202,2.3,2.3,60,0.00,SCT,,0.00,538.0,WeatherDisplay:10.37,2013-06-15 07:46:00,
2013-06-15 09:51:00,77.4,62.9,29.97,West,270,5.8,5.8,61,0.00,BKN,,0.00,419.3,WeatherDisplay:10.37,2013-06-15 07:51:00,
2013-06-15 09:56:00,77.7,62.7,29.97,NNW,338,3.5,3.5,60,0.00,OVC,,0.00,272.7,WeatherDisplay:10.37,2013-06-15 07:56:00,
2013-06-15 10:02:00,77.7,62.7,29.97,WSW,248,5.8,5.8,60,0.00,BKN,,0.00,419.3,WeatherDisplay:10.37,2013-06-15 08:02:00,
2013-06-15 10:07:00,77.5,62.1,30.00,WNW,292,2.3,2.3,59,0.00,OVC,,0.00,269.0,WeatherDisplay:10.37,2013-06-15 08:07:00,
2013-06-15 10:12:00,77.2,61.3,30.00,SSE,158,3.5,3.5,58,0.00,BKN,,0.00,419.3,WeatherDisplay:10.37,2013-06-15 08:12:00,
2013-06-15 10:17:00,77.5,62.1,30.00,South,180,5.8,5.8,59,0.00,FEW,,0.00,720.4,WeatherDisplay:10.37,2013-06-15 08:17:00,
2013-06-15 10:22:00,78.3,62.8,29.97,WNW,292,9.2,9.2,59,0.00,SCT,,0.00,694.7,WeatherDisplay:10.37,2013-06-15 08:22:00,
2013-06-15 10:27:00,78.4,62.9,29.97,NW,315,5.8,5.8,59,0.00,SCT,,0.00,711.3,WeatherDisplay:10.37,2013-06-15 08:27:00,
2013-06-15 10:32:00,78.6,62.1,30.00,WSW,248,5.8,5.8,57,0.00,SCT,,0.00,613.4,WeatherDisplay:10.37,2013-06-15 08:32:00,
2013-06-15 10:37:00,78.6,62.1,30.00,WNW,292,3.8,3.8,57,0.00,SCT,,0.00,564.2,WeatherDisplay:10.37,2013-06-15 08:37:00,
2013-06-15 10:42:00,79.2,62.6,30.00,NNW,338,5.8,5.8,57,0.00,SCT,,0.00,644.9,WeatherDisplay:10.37,2013-06-15 08:42:00,
2013-06-15 10:47:00,78.8,61.8,29.97,SSE,158,2.3,2.3,56,0.00,SCT,,0.00,642.3,WeatherDisplay:10.37,2013-06-15 08:47:00,
2013-06-15 10:52:00,78.6,61.6,29.97,SSE,158,4.6,4.6,56,0.00,SCT,,0.00,639.6,WeatherDisplay:10.37,2013-06-15 08:52:00,
2013-06-15 10:58:00,79.0,61.4,29.97,ENE,68,2.4,2.4,55,0.00,SCT,,0.00,648.7,WeatherDisplay:10.37,2013-06-15 08:58:00,
2013-06-15 11:03:00,79.5,62.4,30.00,WNW,292,4.6,4.6,56,0.00,SCT,,0.00,639.6,WeatherDisplay:10.37,2013-06-15 09:03:00,
2013-06-15 11:08:00,79.7,62.1,30.00,WNW,292,7.4,7.4,55,0.00,SCT,,0.00,651.4,WeatherDisplay:10.37,2013-06-15 09:08:00,
2013-06-15 11:13:00,80.1,61.9,30.00,SSE,158,4.6,4.6,54,0.00,SCT,,0.00,659.4,WeatherDisplay:10.37,2013-06-15 09:13:00,
2013-06-15 11:18:00,79.9,61.7,29.97,West,270,8.1,8.1,54,0.00,SCT,,0.00,686.7,WeatherDisplay:10.37,2013-06-15 09:18:00,
2013-06-15 11:23:00,80.1,61.4,29.97,West,270,3.5,3.5,53,0.00,SCT,,0.00,690.4,WeatherDisplay:10.37,2013-06-15 09:23:00,
2013-06-15 11:28:00,80.2,61.6,29.97,West,270,6.9,6.9,53,0.00,SCT,,0.00,626.8,WeatherDisplay:10.37,2013-06-15 09:28:00,
2013-06-15 11:34:00,80.2,61.6,29.97,South,180,2.6,2.6,53,0.00,SCT,,0.00,672.2,WeatherDisplay:10.37,2013-06-15 09:34:00,
2013-06-15 11:39:00,80.4,61.7,29.97,West,270,4.6,4.6,53,0.00,SCT,,0.00,669.5,WeatherDisplay:10.37,2013-06-15 09:39:00,
2013-06-15 11:44:00,81.1,62.4,29.97,NNW,338,5.9,5.9,53,0.00,SCT,,0.00,708.6,WeatherDisplay:10.37,2013-06-15 09:44:00,
2013-06-15 11:49:00,81.1,61.3,30.00,West,270,5.8,5.8,51,0.00,SCT,,0.00,718.2,WeatherDisplay:10.37,2013-06-15 09:49:00,
2013-06-15 11:54:00,81.3,61.5,30.00,NNW,338,3.1,3.3,51,0.00,SCT,,0.00,740.1,WeatherDisplay:10.37,2013-06-15 09:54:00,
2013-06-15 11:59:00,81.5,61.6,30.00,West,270,5.8,5.8,51,0.00,SCT,,0.00,761.0,WeatherDisplay:10.37,2013-06-15 09:59:00,
2013-06-15 12:05:00,81.5,61.6,29.97,NE,45,3.5,3.5,51,0.00,SCT,,0.00,748.2,WeatherDisplay:10.37,2013-06-15 10:05:00,
2013-06-15 12:10:00,81.1,60.7,29.97,West,270,5.8,5.8,50,0.00,OVC,,0.00,186.6,WeatherDisplay:10.37,2013-06-15 10:10:00,
2013-06-15 12:15:00,80.8,61.0,29.97,West,270,6.9,6.9,51,0.00,OVC,,0.00,246.5,WeatherDisplay:10.37,2013-06-15 10:15:00,
2013-06-15 12:20:00,81.0,61.1,30.00,WNW,292,4.0,0.0,51,0.00,BKN,,0.00,441.2,WeatherDisplay:10.37,2013-06-15 10:20:00,
2013-06-15 12:25:00,81.1,60.7,30.00,South,180,5.8,5.8,50,0.00,SCT,,0.00,753.0,WeatherDisplay:10.37,2013-06-15 10:25:00,
2013-06-15 12:31:00,81.1,60.7,30.00,SSW,202,4.6,4.6,50,0.00,SCT,,0.00,720.4,WeatherDisplay:10.37,2013-06-15 10:31:00,
2013-06-15 12:36:00,81.7,60.7,30.00,SSW,202,3.5,3.5,49,0.00,SCT,,0.00,715.5,WeatherDisplay:10.37,2013-06-15 10:36:00,
2013-06-15 12:41:00,82.2,60.6,30.00,SE,135,4.6,4.6,48,0.00,SCT,,0.00,716.6,WeatherDisplay:10.37,2013-06-15 10:41:00,
2013-06-15 12:46:00,82.4,60.1,30.00,South,180,3.5,3.5,47,0.00,SCT,,0.00,703.8,WeatherDisplay:10.37,2013-06-15 10:46:00,
2013-06-15 12:51:00,82.8,60.5,30.00,NW,315,6.9,6.9,47,0.00,SCT,,0.00,703.8,WeatherDisplay:10.37,2013-06-15 10:51:00,
2013-06-15 12:56:00,82.8,60.5,30.00,SSE,158,5.8,5.8,47,0.00,SCT,,0.00,711.3,WeatherDisplay:10.37,2013-06-15 10:56:00,
2013-06-15 13:02:00,82.9,60.6,30.00,North,0,1.2,1.4,47,0.00,SCT,,0.00,695.8,WeatherDisplay:10.37,2013-06-15 11:02:00,
2013-06-15 13:07:00,83.3,60.4,29.97,West,270,2.3,2.3,46,0.00,SCT,,0.00,725.7,WeatherDisplay:10.37,2013-06-15 11:07:00,
2013-06-15 13:12:00,83.7,61.3,29.97,North,0,8.1,8.1,47,0.00,SCT,,0.00,695.8,WeatherDisplay:10.37,2013-06-15 11:12:00,
2013-06-15 13:17:00,83.5,60.5,29.97,West,270,8.1,8.1,46,0.00,SCT,,0.00,743.9,WeatherDisplay:10.37,2013-06-15 11:17:00,
2013-06-15 13:22:00,83.1,59.6,29.97,West,270,3.8,3.8,45,0.00,SCT,,0.00,749.2,WeatherDisplay:10.37,2013-06-15 11:22:00,
2013-06-15 13:27:00,83.7,60.1,29.97,West,270,3.5,3.5,45,0.00,SCT,,0.00,737.5,WeatherDisplay:10.37,2013-06-15 11:27:00,
2013-06-15 13:32:00,84.2,60.6,29.97,West,270,4.7,4.7,45,0.00,SCT,,0.00,699.5,WeatherDisplay:10.37,2013-06-15 11:32:00,
2013-06-15 13:37:00,84.2,59.9,29.97,West,270,4.6,4.6,44,0.00,SCT,,0.00,704.8,WeatherDisplay:10.37,2013-06-15 11:37:00,
2013-06-15 13:43:00,84.2,59.9,29.97,WSW,248,8.1,8.1,44,0.00,SCT,,0.00,701.1,WeatherDisplay:10.37,2013-06-15 11:43:00,
2013-06-15 13:48:00,83.8,59.6,29.97,WSW,248,3.5,3.5,44,0.00,SCT,,0.00,712.9,WeatherDisplay:10.37,2013-06-15 11:48:00,
2013-06-15 13:53:00,84.4,60.1,29.97,West,270,4.6,4.6,44,0.00,SCT,,0.00,722.0,WeatherDisplay:10.37,2013-06-15 11:53:00,
2013-06-15 13:58:00,84.9,60.6,29.97,WSW,248,5.8,5.8,44,0.00,SCT,,0.00,710.2,WeatherDisplay:10.37,2013-06-15 11:58:00,
2013-06-15 14:03:00,84.7,59.8,29.97,ENE,68,5.8,5.8,43,0.00,SCT,,0.00,687.7,WeatherDisplay:10.37,2013-06-15 12:03:00,
2013-06-15 14:08:00,85.3,60.3,29.97,West,270,6.7,6.7,43,0.00,SCT,,0.00,666.9,WeatherDisplay:10.37,2013-06-15 12:08:00,
2013-06-15 14:14:00,85.3,59.6,29.97,WNW,292,9.2,9.2,42,0.00,SCT,,0.00,657.8,WeatherDisplay:10.37,2013-06-15 12:14:00,
2013-06-15 14:19:00,85.1,59.4,29.97,West,270,6.9,6.9,42,0.00,SCT,,0.00,656.7,WeatherDisplay:10.37,2013-06-15 12:19:00,
2013-06-15 14:24:00,85.1,59.4,29.97,West,270,3.8,3.8,42,0.00,SCT,,0.00,646.0,WeatherDisplay:10.37,2013-06-15 12:24:00,
2013-06-15 14:29:00,85.3,59.6,29.97,NW,315,6.9,6.9,42,0.00,SCT,,0.00,643.3,WeatherDisplay:10.37,2013-06-15 12:29:00,
2013-06-15 14:34:00,85.6,59.9,29.97,West,270,3.8,3.8,42,0.00,SCT,,0.00,641.2,WeatherDisplay:10.37,2013-06-15 12:34:00,
2013-06-15 14:40:00,85.5,59.1,29.97,SSE,158,5.8,5.8,41,0.00,SCT,,0.00,633.2,WeatherDisplay:10.37,2013-06-15 12:40:00,
2013-06-15 14:45:00,85.1,58.8,29.97,SSE,158,2.3,2.3,41,0.00,SCT,,0.00,625.2,WeatherDisplay:10.37,2013-06-15 12:45:00,
2013-06-15 14:50:00,85.3,58.9,29.97,SE,135,4.6,4.6,41,0.00,SCT,,0.00,627.8,WeatherDisplay:10.37,2013-06-15 12:50:00,
2013-06-15 14:55:00,85.3,58.9,29.97,SSE,158,4.6,4.6,41,0.00,SCT,,0.00,616.1,WeatherDisplay:10.37,2013-06-15 12:55:00,
2013-06-15 15:01:00,85.3,58.9,29.97,WNW,292,3.5,3.5,41,0.00,SCT,,0.00,617.7,WeatherDisplay:10.37,2013-06-15 13:01:00,
2013-06-15 15:06:00,85.6,59.2,29.97,West,270,3.5,3.5,41,0.00,SCT,,0.00,625.2,WeatherDisplay:10.37,2013-06-15 13:06:00,
2013-06-15 15:11:00,85.8,59.4,29.97,SSE,158,6.2,6.2,41,0.00,SCT,,0.00,599.0,WeatherDisplay:10.37,2013-06-15 13:11:00,
2013-06-15 15:16:00,85.5,59.1,29.97,West,270,5.8,5.8,41,0.00,BKN,,0.00,519.8,WeatherDisplay:10.37,2013-06-15 13:16:00,
2013-06-15 15:21:00,85.6,59.2,29.94,West,270,8.1,8.1,41,0.00,BKN,,0.00,494.7,WeatherDisplay:10.37,2013-06-15 13:21:00,
2013-06-15 15:26:00,85.1,58.1,29.94,SSE,158,6.9,6.9,40,0.00,BKN,,0.00,394.1,WeatherDisplay:10.37,2013-06-15 13:26:00,
2013-06-15 15:32:00,85.1,58.1,29.94,WNW,292,5.8,5.8,40,0.00,BKN,,0.00,403.2,WeatherDisplay:10.37,2013-06-15 13:32:00,
2013-06-15 15:37:00,84.9,58.6,29.94,SE,135,2.3,2.3,41,0.00,SCT,,0.00,526.2,WeatherDisplay:10.37,2013-06-15 13:37:00,
2013-06-15 15:42:00,85.1,58.1,29.94,WNW,292,5.6,5.6,40,0.00,SCT,,0.00,503.8,WeatherDisplay:10.37,2013-06-15 13:42:00,
2013-06-15 15:47:00,85.3,58.2,29.94,WNW,292,5.8,5.8,40,0.00,BKN,,0.00,440.1,WeatherDisplay:10.37,2013-06-15 13:47:00,
2013-06-15 15:52:00,85.3,58.2,29.94,West,270,5.8,5.8,40,0.00,BKN,,0.00,437.5,WeatherDisplay:10.37,2013-06-15 13:52:00,
2013-06-15 15:58:00,84.9,57.2,29.94,SE,135,3.5,3.5,39,0.00,BKN,,0.00,405.9,WeatherDisplay:10.37,2013-06-15 13:58:00,
2013-06-15 16:03:00,84.9,57.2,29.94,WNW,292,3.5,3.5,39,0.00,BKN,,0.00,444.9,WeatherDisplay:10.37,2013-06-15 14:03:00,
2013-06-15 16:08:00,85.3,56.8,29.94,WSW,248,3.5,3.5,38,0.00,SCT,,0.00,622.5,WeatherDisplay:10.37,2013-06-15 14:08:00,
2013-06-15 16:13:00,85.8,57.3,29.94,South,180,4.6,4.6,38,0.00,SCT,,0.00,575.4,WeatherDisplay:10.37,2013-06-15 14:13:00,
2013-06-15 16:18:00,85.6,56.4,29.94,WNW,292,8.1,8.1,37,0.00,BKN,,0.00,437.5,WeatherDisplay:10.37,2013-06-15 14:18:00,
2013-06-15 16:24:00,85.6,56.4,29.94,SSE,158,5.8,5.8,37,0.00,SCT,,0.00,524.6,WeatherDisplay:10.37,2013-06-15 14:24:00,
2013-06-15 16:29:00,85.6,56.4,29.94,WSW,248,5.8,5.8,37,0.00,SCT,,0.00,500.0,WeatherDisplay:10.37,2013-06-15 14:29:00,
2013-06-15 16:34:00,86.2,56.9,29.97,SW,225,4.6,4.6,37,0.00,SCT,,0.00,470.1,WeatherDisplay:10.37,2013-06-15 14:34:00,
2013-06-15 16:39:00,86.0,56.7,29.97,WSW,248,3.8,3.8,37,0.00,SCT,,0.00,465.8,WeatherDisplay:10.37,2013-06-15 14:39:00,
2013-06-15 16:44:00,85.8,56.5,29.97,West,270,4.6,4.6,37,0.00,SCT,,0.00,458.3,WeatherDisplay:10.37,2013-06-15 14:44:00,
2013-06-15 16:49:00,86.0,57.4,29.91,West,270,5.8,5.8,38,0.00,SCT,,0.00,435.8,WeatherDisplay:10.37,2013-06-15 14:49:00,
2013-06-15 16:54:00,85.8,56.5,29.91,NE,45,5.8,5.8,37,0.00,SCT,,0.00,434.8,WeatherDisplay:10.37,2013-06-15 14:54:00,
2013-06-15 16:59:00,85.8,56.5,29.91,SSE,158,5.8,5.8,37,0.00,SCT,,0.00,424.1,WeatherDisplay:10.37,2013-06-15 14:59:00,
2013-06-15 17:05:00,86.0,56.7,29.94,SE,135,2.3,2.6,37,0.00,SCT,,0.00,411.2,WeatherDisplay:10.37,2013-06-15 15:05:00,
2013-06-15 17:10:00,86.0,57.4,29.94,West,270,5.8,5.8,38,0.00,SCT,,0.00,402.2,WeatherDisplay:10.37,2013-06-15 15:10:00,
2013-06-15 17:15:00,85.8,57.3,29.94,WSW,248,3.5,3.5,38,0.00,SCT,,0.00,393.1,WeatherDisplay:10.37,2013-06-15 15:15:00,
2013-06-15 17:20:00,85.6,57.1,29.94,West,270,3.5,3.5,38,0.00,SCT,,0.00,379.7,WeatherDisplay:10.37,2013-06-15 15:20:00,
2013-06-15 17:25:00,85.6,57.1,29.94,NNW,338,2.6,2.6,38,0.00,SCT,,0.00,367.9,WeatherDisplay:10.37,2013-06-15 15:25:00,
2013-06-15 17:31:00,85.6,57.1,29.94,West,270,5.8,5.8,38,0.00,SCT,,0.00,347.1,WeatherDisplay:10.37,2013-06-15 15:31:00,
2013-06-15 17:36:00,85.5,56.2,29.94,WNW,292,5.8,5.8,37,0.00,SCT,,0.00,338.0,WeatherDisplay:10.37,2013-06-15 15:36:00,
2013-06-15 17:41:00,85.5,56.2,29.94,SSE,158,3.5,3.5,37,0.00,SCT,,0.00,326.2,WeatherDisplay:10.37,2013-06-15 15:41:00,
2013-06-15 17:46:00,85.1,56.6,29.94,West,270,4.9,4.9,38,0.00,OVC,,0.00,150.3,WeatherDisplay:10.37,2013-06-15 15:46:00,
2013-06-15 17:51:00,84.7,56.3,29.94,West,270,3.5,3.5,38,0.00,BKN,,0.00,240.1,WeatherDisplay:10.37,2013-06-15 15:51:00,
2013-06-15 17:56:00,84.6,56.2,29.94,West,270,1.2,1.2,38,0.00,OVC,,0.00,58.8,WeatherDisplay:10.37,2013-06-15 15:56:00,
2013-06-15 18:02:00,84.2,55.8,29.94,SSE,158,4.0,4.0,38,0.00,OVC,,0.00,56.2,WeatherDisplay:10.37,2013-06-15 16:02:00,
2013-06-15 18:07:00,84.0,55.7,29.94,WSW,248,3.5,3.5,38,0.00,OVC,,0.00,56.2,WeatherDisplay:10.37,2013-06-15 16:07:00,
2013-06-15 18:12:00,83.8,55.5,29.94,West,270,3.5,3.5,38,0.00,OVC,,0.00,66.3,WeatherDisplay:10.37,2013-06-15 16:12:00,
2013-06-15 18:17:00,83.7,56.1,29.94,West,270,5.8,5.8,39,0.00,OVC,,0.00,55.1,WeatherDisplay:10.37,2013-06-15 16:17:00,
2013-06-15 18:22:00,83.5,55.9,29.94,WNW,292,4.7,4.7,39,0.00,OVC,,0.00,56.2,WeatherDisplay:10.37,2013-06-15 16:22:00,
2013-06-15 18:27:00,83.3,55.0,29.94,WSW,248,2.3,2.3,38,0.00,OVC,,0.00,53.5,WeatherDisplay:10.37,2013-06-15 16:27:00,
2013-06-15 18:33:00,83.1,55.6,29.94,ESE,112,6.9,6.9,39,0.00,OVC,,0.00,49.7,WeatherDisplay:10.37,2013-06-15 16:33:00,
2013-06-15 18:38:00,82.9,55.4,29.94,WNW,292,3.5,3.5,39,0.00,OVC,,0.00,49.7,WeatherDisplay:10.37,2013-06-15 16:38:00,
2013-06-15 18:43:00,82.9,56.1,29.94,WSW,248,4.6,4.6,40,0.00,OVC,,0.00,50.8,WeatherDisplay:10.37,2013-06-15 16:43:00,
2013-06-15 18:48:00,82.8,56.0,29.94,SSE,158,6.9,6.9,40,0.00,OVC,,0.00,52.4,WeatherDisplay:10.37,2013-06-15 16:48:00,
2013-06-15 18:54:00,82.6,55.8,29.94,WNW,292,3.5,3.5,40,0.00,OVC,,0.00,48.1,WeatherDisplay:10.37,2013-06-15 16:54:00,
2013-06-15 18:59:00,82.6,55.8,29.94,West,270,3.5,3.8,40,0.00,OVC,,0.00,48.1,WeatherDisplay:10.37,2013-06-15 16:59:00,
2013-06-15 19:04:00,82.4,55.7,29.94,West,270,3.5,3.5,40,0.00,OVC,,0.00,45.5,WeatherDisplay:10.37,2013-06-15 17:04:00,
2013-06-15 19:09:00,82.2,56.2,29.94,West,270,3.5,3.5,41,0.00,OVC,,0.00,41.7,WeatherDisplay:10.37,2013-06-15 17:09:00,
2013-06-15 19:14:00,82.0,56.0,29.94,WSW,248,3.5,3.5,41,0.00,OVC,,0.00,40.6,WeatherDisplay:10.37,2013-06-15 17:14:00,
2013-06-15 19:19:00,82.0,56.0,29.94,WNW,292,5.8,5.8,41,0.00,OVC,,0.00,39.0,WeatherDisplay:10.37,2013-06-15 17:19:00,
2013-06-15 19:24:00,81.7,55.7,29.94,West,270,5.8,5.8,41,0.00,OVC,,0.00,39.0,WeatherDisplay:10.37,2013-06-15 17:24:00,
2013-06-15 19:30:00,81.7,55.7,29.94,WNW,292,4.6,4.6,41,0.00,OVC,,0.00,40.6,WeatherDisplay:10.37,2013-06-15 17:30:00,
2013-06-15 19:35:00,81.5,55.5,29.94,WNW,292,4.6,4.6,41,0.00,OVC,,0.00,32.6,WeatherDisplay:10.37,2013-06-15 17:35:00,
2013-06-15 19:40:00,81.1,55.9,29.94,WNW,292,4.6,4.6,42,0.00,OVC,,0.00,27.3,WeatherDisplay:10.37,2013-06-15 17:40:00,
2013-06-15 19:45:00,81.0,55.7,29.94,WNW,292,2.9,2.9,42,0.00,OVC,,0.00,24.6,WeatherDisplay:10.37,2013-06-15 17:45:00,
2013-06-15 19:50:00,80.6,56.0,29.94,West,270,4.6,4.6,43,0.00,OVC,,0.00,24.6,WeatherDisplay:10.37,2013-06-15 17:50:00,
2013-06-15 19:56:00,80.4,55.9,29.94,West,270,3.5,3.5,43,0.00,OVC,,0.00,20.9,WeatherDisplay:10.37,2013-06-15 17:56:00,
2013-06-15 20:01:00,80.1,55.5,29.94,WSW,248,3.5,3.5,43,0.00,OVC,,0.00,18.2,WeatherDisplay:10.37,2013-06-15 18:01:00,
2013-06-15 20:06:00,79.7,55.9,29.94,WNW,292,5.8,5.8,44,0.00,OVC,,0.00,17.1,WeatherDisplay:10.37,2013-06-15 18:06:00,
2013-06-15 20:11:00,79.5,55.7,29.94,WNW,292,4.6,4.6,44,0.00,OVC,,0.00,14.4,WeatherDisplay:10.37,2013-06-15 18:11:00,
2013-06-15 20:16:00,79.2,56.0,29.94,West,270,3.5,3.5,45,0.00,OVC,,0.00,11.8,WeatherDisplay:10.37,2013-06-15 18:16:00,
2013-06-15 20:22:00,78.8,55.7,29.94,West,270,3.5,3.5,45,0.00,OVC,,0.00,9.1,WeatherDisplay:10.37,2013-06-15 18:22:00,
2013-06-15 20:27:00,78.6,55.5,29.94,West,270,2.3,2.3,45,0.00,OVC,,0.00,6.4,WeatherDisplay:10.37,2013-06-15 18:27:00,
2013-06-15 20:32:00,78.3,55.8,29.94,WSW,248,2.6,2.6,46,0.00,OVC,,0.00,3.7,WeatherDisplay:10.37,2013-06-15 18:32:00,
2013-06-15 20:37:00,78.1,55.6,29.94,West,270,2.3,2.3,46,0.00,OVC,,0.00,1.1,WeatherDisplay:10.37,2013-06-15 18:37:00,
2013-06-15 20:42:00,77.7,55.3,29.94,West,270,1.6,1.6,46,0.00,OVC,,0.00,1.1,WeatherDisplay:10.37,2013-06-15 18:42:00,
2013-06-15 20:47:00,77.4,55.6,29.94,West,270,1.4,1.4,47,0.00,OVC,,0.00,1.1,WeatherDisplay:10.37,2013-06-15 18:47:00,
2013-06-15 20:52:00,77.0,55.2,29.94,West,270,2.6,2.6,47,0.00,OVC,,0.00,1.1,WeatherDisplay:10.37,2013-06-15 18:52:00,
2013-06-15 20:58:00,76.6,54.9,29.94,West,270,3.5,3.5,47,0.00,OVC,,0.00,1.1,WeatherDisplay:10.37,2013-06-15 18:58:00,
2013-06-15 21:03:00,76.5,55.3,29.94,West,270,1.2,1.2,48,0.00,CLR,,0.00,0.0,WeatherDisplay:10.37,2013-06-15 19:03:00,
2013-06-15 21:08:00,76.1,55.0,29.94,West,270,1.2,0.0,48,0.00,CLR,,0.00,0.0,WeatherDisplay:10.37,2013-06-15 19:08:00,
2013-06-15 21:13:00,75.9,55.4,29.94,West,270,1.2,0.0,49,0.00,CLR,,0.00,0.0,WeatherDisplay:10.37,2013-06-15 19:13:00,
2013-06-15 21:19:00,75.6,55.1,29.94,West,270,0.0,0.0,49,0.00,CLR,,0.00,0.0,WeatherDisplay:10.37,2013-06-15 19:19:00,
2013-06-15 21:24:00,75.4,55.4,29.94,West,270,0.0,0.0,50,0.00,CLR,,0.00,0.0,WeatherDisplay:10.37,2013-06-15 19:24:00,
2013-06-15 21:29:00,74.8,55.5,29.94,West,270,0.0,0.0,51,0.00,CLR,,0.00,0.0,WeatherDisplay:10.37,2013-06-15 19:29:00,
2013-06-15 21:34:00,74.7,55.3,29.94,West,270,0.0,0.0,51,0.00,CLR,,0.00,0.0,WeatherDisplay:10.37,2013-06-15 19:34:00,
2013-06-15 21:40:00,74.3,55.5,29.94,West,270,0.0,0.0,52,0.00,CLR,,0.00,0.0,WeatherDisplay:10.37,2013-06-15 19:40:00,
2013-06-15 21:45:00,73.9,55.7,29.94,West,270,0.0,0.0,53,0.00,CLR,,0.00,0.0,WeatherDisplay:10.37,2013-06-15 19:45:00,
2013-06-15 21:50:00,73.8,56.1,29.94,West,270,0.0,0.0,54,0.00,CLR,,0.00,0.0,WeatherDisplay:10.37,2013-06-15 19:50:00,
2013-06-15 21:56:00,73.4,56.2,29.94,West,270,0.0,0.0,55,0.00,CLR,,0.00,0.0,WeatherDisplay:10.37,2013-06-15 19:56:00,
2013-06-15 22:01:00,73.0,56.4,29.94,West,270,0.0,0.0,56,0.00,CLR,,0.00,0.0,WeatherDisplay:10.37,2013-06-15 20:01:00,
2013-06-15 22:06:00,72.9,56.2,29.94,West,270,0.0,0.0,56,0.00,CLR,,0.00,0.0,WeatherDisplay:10.37,2013-06-15 20:06:00,
2013-06-15 22:11:00,72.5,56.4,29.94,West,270,0.0,0.0,57,0.00,CLR,,0.00,0.0,WeatherDisplay:10.37,2013-06-15 20:11:00,
2013-06-15 22:16:00,72.3,56.7,29.94,West,270,0.0,0.0,58,0.00,CLR,,0.00,0.0,WeatherDisplay:10.37,2013-06-15 20:16:00,
2013-06-15 22:21:00,72.0,56.8,29.97,West,270,0.0,0.0,59,0.00,CLR,,0.00,0.0,WeatherDisplay:10.37,2013-06-15 20:21:00,
2013-06-15 22:27:00,71.8,56.7,29.97,SE,135,0.0,0.0,59,0.00,CLR,,0.00,0.0,WeatherDisplay:10.37,2013-06-15 20:27:00,
2013-06-15 22:32:00,71.6,57.0,29.94,SE,135,0.0,0.0,60,0.00,CLR,,0.00,0.0,WeatherDisplay:10.37,2013-06-15 20:32:00,
2013-06-15 22:37:00,71.2,57.1,29.94,ESE,112,1.4,1.4,61,0.00,CLR,,0.00,0.0,WeatherDisplay:10.37,2013-06-15 20:37:00,
2013-06-15 22:42:00,71.1,56.5,29.94,ESE,112,1.2,0.0,60,0.00,CLR,,0.00,0.0,WeatherDisplay:10.37,2013-06-15 20:42:00,
2013-06-15 22:47:00,70.9,56.3,29.97,ESE,112,0.0,0.0,60,0.00,CLR,,0.00,0.0,WeatherDisplay:10.37,2013-06-15 20:47:00,
2013-06-15 22:52:00,70.5,56.9,29.97,NNW,338,1.2,0.0,62,0.00,CLR,,0.00,0.0,WeatherDisplay:10.37,2013-06-15 20:52:00,
2013-06-15 22:58:00,70.3,56.7,29.97,NNW,338,1.2,1.2,62,0.00,CLR,,0.00,0.0,WeatherDisplay:10.37,2013-06-15 20:58:00,
2013-06-15 23:03:00,70.2,56.5,29.97,NNW,338,0.0,0.0,62,0.00,CLR,,0.00,0.0,WeatherDisplay:10.37,2013-06-15 21:03:00,
2013-06-15 23:08:00,69.8,56.6,29.97,NNW,338,0.0,0.0,63,0.00,CLR,,0.00,0.0,WeatherDisplay:10.37,2013-06-15 21:08:00,
2013-06-15 23:13:00,69.6,56.9,29.97,NNE,22,1.6,0.0,64,0.00,CLR,,0.00,0.0,WeatherDisplay:10.37,2013-06-15 21:13:00,
2013-06-15 23:19:00,69.4,56.7,29.97,NNE,22,0.0,0.0,64,0.00,CLR,,0.00,0.0,WeatherDisplay:10.37,2013-06-15 21:19:00,
2013-06-15 23:24:00,69.3,56.6,29.97,NNE,22,1.2,0.0,64,0.00,CLR,,0.00,0.0,WeatherDisplay:10.37,2013-06-15 21:24:00,
2013-06-15 23:29:00,69.1,56.4,29.97,NNE,22,0.0,0.0,64,0.00,CLR,,0.00,0.0,WeatherDisplay:10.37,2013-06-15 21:29:00,
2013-06-15 23:34:00,68.9,57.1,29.97,NNE,22,1.2,1.2,66,0.00,CLR,,0.00,0.0,WeatherDisplay:10.37,2013-06-15 21:34:00,
2013-06-15 23:39:00,68.7,56.9,29.97,NNE,22,0.0,0.0,66,0.00,CLR,,0.00,0.0,WeatherDisplay:10.37,2013-06-15 21:39:00,
2013-06-15 23:45:00,68.5,56.7,29.97,NNE,22,0.0,0.0,66,0.00,CLR,,0.00,0.0,WeatherDisplay:10.37,2013-06-15 21:45:00,
2013-06-15 23:50:00,68.4,56.6,29.97,NNE,22,0.0,0.0,66,0.00,CLR,,0.00,0.0,WeatherDisplay:10.37,2013-06-15 21:50:00,
2013-06-15 23:55:00,68.0,56.6,29.97,NNE,22,0.0,0.0,67,0.00,CLR,,0.00,0.0,WeatherDisplay:10.37,2013-06-15 21:55:00,